Location: Bartshausen
(51.8454°N, 9.8167°E)
Time: 09:27:26
(UTC+00:00)

Cosmos 304 Rocket - Pass Details

Date: 08 November 2025
Orbit: 668 x 677 km, 74.0° (Epoch: 11 December)

Event Time Altitude Azimuth Distance (km) Brightness Sun altitude
Exits shadow 05:12:22 - 335° (NNW) 2,829 6.6 -11.8°
Reaches altitude 10° 05:14:09 10° 336° (NNW) 2,121 6.0 -11.6°
Maximum altitude 05:18:56 86° 64° (ENE) 686 3.8 -10.8°
Drops below altitude 10° 05:23:42 10° 155° (SSE) 2,110 6.9 -10.1°
Sets 05:25:59 0° 156° (SSE) 3,022 7.7 -9.8°
